When you browse on this site, cookies collect data to enhance your experience and personalize the content and advertising you see.
Visit our Privacy Policy to learn more. By continuing to use the site, you agree to this use of cookies and data.
  • In Hungary
  • List of Countries
  • For 7 days
  • Water Temperature
  • Weather Map
  • News
  • Weather Widgets
  • user-avatar
    Login

    Hourly Weather Matlock

    Today, 4 June, Thursday

    Time Temperature Precipitation Wind Pressure Humidity
    00:00 +7°C° 0 mm 3 mps 740 mmHg 90%
    01:00 +7°C° 0 mm 3 mps 739 mmHg 89%
    02:00 +7°C° 0 mm 3 mps 739 mmHg 88%
    03:00 +8°C° 0 mm 3 mps 738 mmHg 87%
    04:00 +8°C° 0 mm 3 mps 738 mmHg 85%
    05:00 +8°C° 0 mm 3 mps 738 mmHg 82%
    06:00 +9°C° 0 mm 2 mps 738 mmHg 79%
    07:00 +10°C° 0 mm 3 mps 738 mmHg 74%
    08:00 +11°C° 0 mm 3 mps 737 mmHg 68%
    09:00 +12°C° 0 mm 3 mps 737 mmHg 62%
    10:00 +12°C° 0.1 mm 4 mps 737 mmHg 65%
    11:00 +12°C° 0.1 mm 4 mps 736 mmHg 69%
    12:00 +12°C° 0.1 mm 4 mps 736 mmHg 72%
    13:00 +13°C° 0.2 mm 5 mps 735 mmHg 68%
    14:00 +13°C° 0.2 mm 5 mps 735 mmHg 65%
    15:00 +14°C° 0.2 mm 5 mps 734 mmHg 62%
    16:00 +14°C° 0.4 mm 5 mps 734 mmHg 67%
    17:00 +13°C° 0.4 mm 5 mps 733 mmHg 72%
    18:00 +11°C° 0.4 mm 6 mps 733 mmHg 76%
    19:00 +10°C° 0.3 mm 5 mps 733 mmHg 81%
    20:00 +10°C° 0.3 mm 4 mps 732 mmHg 86%
    21:00 +8°C° 0.3 mm 4 mps 732 mmHg 91%
    22:00 +8°C° 0.1 mm 4 mps 732 mmHg 91%
    23:00 +7°C° 0.1 mm 4 mps 732 mmHg 91%

    Tomorrow, 5 June, Friday

    Time Temperature Precipitation Wind Pressure Humidity
    00:00 +7°C° 0.1 mm 4 mps 731 mmHg 90%
    01:00 +6°C° 0.1 mm 4 mps 731 mmHg 90%
    02:00 +7°C° 0.1 mm 3 mps 730 mmHg 90%
    03:00 +7°C° 0.1 mm 3 mps 730 mmHg 91%
    04:00 +7°C° 0.9 mm 3 mps 730 mmHg 91%
    05:00 +7°C° 0.9 mm 3 mps 730 mmHg 91%
    06:00 +7°C° 0.9 mm 3 mps 730 mmHg 92%
    07:00 +7°C° 0.6 mm 3 mps 730 mmHg 90%
    08:00 +7°C° 0.6 mm 4 mps 730 mmHg 87%
    09:00 +7°C° 0.6 mm 5 mps 730 mmHg 85%
    10:00 +8°C° 0.4 mm 6 mps 730 mmHg 75%
    11:00 +9°C° 0.4 mm 7 mps 730 mmHg 65%
    12:00 +11°C° 0.4 mm 8 mps 730 mmHg 55%
    13:00 +11°C° 0.1 mm 8 mps 730 mmHg 54%
    14:00 +11°C° 0.1 mm 9 mps 730 mmHg 54%
    15:00 +11°C° 0.1 mm 10 mps 730 mmHg 54%
    16:00 +10°C° 0 mm 9 mps 729 mmHg 55%
    17:00 +10°C° 0 mm 9 mps 729 mmHg 57%
    18:00 +8°C° 0 mm 9 mps 729 mmHg 58%
    19:00 +7°C° 0 mm 8 mps 729 mmHg 60%
    20:00 +6°C° 0 mm 8 mps 729 mmHg 62%
    21:00 +5°C° 0 mm 7 mps 730 mmHg 65%
    22:00 +5°C° 0 mm 8 mps 729 mmHg 68%
    23:00 +3°C° 0 mm 9 mps 728 mmHg 72%

    Day after tomorrow, 6 June, Saturday

    Time Temperature Precipitation Wind Pressure Humidity
    00:00 +3°C° 0 mm 9 mps 728 mmHg 75%
    01:00 +3°C° 0.6 mm 10 mps 727 mmHg 80%
    02:00 +3°C° 0.6 mm 10 mps 727 mmHg 85%
    03:00 +3°C° 0.6 mm 10 mps 726 mmHg 90%
    04:00 +5°C° 1.1 mm 9 mps 726 mmHg 88%
    05:00 +6°C° 1.1 mm 9 mps 725 mmHg 87%
    06:00 +7°C° 1.1 mm 8 mps 725 mmHg 85%
    07:00 +7°C° 0.1 mm 8 mps 726 mmHg 81%
    08:00 +7°C° 0.1 mm 8 mps 726 mmHg 77%
    09:00 +9°C° 0.1 mm 8 mps 727 mmHg 74%
    10:00 +9°C° 0.4 mm 8 mps 727 mmHg 76%
    11:00 +9°C° 0.4 mm 8 mps 728 mmHg 78%
    12:00 +9°C° 0.4 mm 8 mps 729 mmHg 79%
    13:00 +10°C° 0.4 mm 8 mps 729 mmHg 77%
    14:00 +11°C° 0.4 mm 8 mps 730 mmHg 75%
    15:00 +12°C° 0.4 mm 7 mps 731 mmHg 73%
    16:00 +12°C° 0.2 mm 7 mps 731 mmHg 73%
    17:00 +13°C° 0.2 mm 6 mps 732 mmHg 74%
    18:00 +13°C° 0.2 mm 5 mps 732 mmHg 74%
    19:00 +12°C° 0.1 mm 5 mps 733 mmHg 79%
    20:00 +11°C° 0.1 mm 4 mps 734 mmHg 84%
    21:00 +8°C° 0.1 mm 4 mps 734 mmHg 88%
    22:00 +8°C° 0 mm 4 mps 734 mmHg 89%
    23:00 +8°C° 0 mm 5 mps 734 mmHg 91%

    7 June, Sunday

    Time Temperature Precipitation Wind Pressure Humidity
    00:00 +8°C° 0 mm 5 mps 734 mmHg 92%
    01:00 +8°C° 0 mm 5 mps 735 mmHg 91%
    02:00 +8°C° 0 mm 5 mps 735 mmHg 91%
    03:00 +8°C° 0 mm 5 mps 735 mmHg 90%
    04:00 +8°C° 0.1 mm 4 mps 735 mmHg 90%
    05:00 +10°C° 0.1 mm 4 mps 735 mmHg 90%
    06:00 +10°C° 0.1 mm 4 mps 736 mmHg 89%
    07:00 +11°C° 0.2 mm 4 mps 736 mmHg 88%
    08:00 +11°C° 0.2 mm 3 mps 737 mmHg 87%
    09:00 +11°C° 0.2 mm 3 mps 737 mmHg 86%
    10:00 +12°C° 0.3 mm 3 mps 738 mmHg 85%
    11:00 +12°C° 0.3 mm 3 mps 738 mmHg 85%
    12:00 +12°C° 0.3 mm 4 mps 738 mmHg 85%
    13:00 +12°C° 0.1 mm 4 mps 739 mmHg 84%
    14:00 +12°C° 0.1 mm 3 mps 739 mmHg 84%
    15:00 +12°C° 0.1 mm 3 mps 739 mmHg 83%
    16:00 +11°C° 0.1 mm 3 mps 740 mmHg 84%
    17:00 +11°C° 0.1 mm 3 mps 740 mmHg 84%
    18:00 +11°C° 0.1 mm 3 mps 740 mmHg 84%
    19:00 +10°C° 0.1 mm 3 mps 741 mmHg 85%
    20:00 +10°C° 0.1 mm 3 mps 741 mmHg 86%
    21:00 +8°C° 0.1 mm 4 mps 742 mmHg 86%
    22:00 +9°C° 0 mm 3 mps 742 mmHg 86%
    23:00 +9°C° 0 mm 3 mps 742 mmHg 87%

    8 June, Monday

    Time Temperature Precipitation Wind Pressure Humidity
    00:00 +9°C° 0 mm 3 mps 743 mmHg 87%
    01:00 +8°C° 0 mm 3 mps 743 mmHg 87%
    02:00 +8°C° 0 mm 3 mps 743 mmHg 86%
    03:00 +8°C° 0 mm 3 mps 743 mmHg 86%
    04:00 +7°C° 0 mm 4 mps 743 mmHg 86%
    05:00 +7°C° 0 mm 4 mps 744 mmHg 86%
    06:00 +7°C° 0 mm 4 mps 744 mmHg 86%
    07:00 +8°C° 0 mm 4 mps 744 mmHg 82%
    08:00 +9°C° 0 mm 5 mps 745 mmHg 79%
    09:00 +9°C° 0 mm 5 mps 745 mmHg 76%
    10:00 +10°C° 0 mm 5 mps 745 mmHg 75%
    11:00 +12°C° 0 mm 5 mps 745 mmHg 74%
    12:00 +12°C° 0 mm 5 mps 745 mmHg 72%
    13:00 +12°C° 0.1 mm 5 mps 746 mmHg 75%
    14:00 +12°C° 0.1 mm 4 mps 746 mmHg 78%
    15:00 +11°C° 0.1 mm 4 mps 746 mmHg 80%
    16:00 +11°C° 0 mm 4 mps 746 mmHg 80%
    17:00 +11°C° 0 mm 4 mps 746 mmHg 80%
    18:00 +12°C° 0 mm 4 mps 746 mmHg 79%
    19:00 +11°C° 0 mm 4 mps 747 mmHg 81%
    20:00 +10°C° 0 mm 4 mps 747 mmHg 83%
    21:00 +8°C° 0 mm 4 mps 748 mmHg 85%
    22:00 +7°C° 0 mm 4 mps 748 mmHg 84%
    23:00 +7°C° 0 mm 4 mps 748 mmHg 82%

    9 June, Tuesday

    Time Temperature Precipitation Wind Pressure Humidity
    00:00 +8°C° 0 mm 3 mps 748 mmHg 81%
    01:00 +7°C° 0 mm 3 mps 748 mmHg 81%
    02:00 +7°C° 0 mm 3 mps 748 mmHg 82%
    03:00 +7°C° 0 mm 3 mps 748 mmHg 82%
    04:00 +7°C° 0 mm 3 mps 748 mmHg 81%
    05:00 +8°C° 0 mm 3 mps 748 mmHg 80%
    06:00 +8°C° 0 mm 3 mps 748 mmHg 78%
    07:00 +9°C° 0 mm 3 mps 749 mmHg 75%
    08:00 +11°C° 0 mm 3 mps 749 mmHg 72%
    09:00 +12°C° 0 mm 3 mps 749 mmHg 69%
    10:00 +12°C° 0.1 mm 3 mps 749 mmHg 69%
    11:00 +13°C° 0.1 mm 3 mps 749 mmHg 69%
    12:00 +14°C° 0.1 mm 3 mps 749 mmHg 68%
    13:00 +14°C° 0.1 mm 3 mps 749 mmHg 70%
    14:00 +14°C° 0.1 mm 3 mps 749 mmHg 71%
    15:00 +14°C° 0.1 mm 3 mps 749 mmHg 72%
    16:00 +13°C° 0.1 mm 3 mps 749 mmHg 75%
    17:00 +13°C° 0.1 mm 3 mps 749 mmHg 78%
    18:00 +13°C° 0.1 mm 3 mps 749 mmHg 80%
    19:00 +11°C° 0.1 mm 3 mps 749 mmHg 84%
    20:00 +10°C° 0.1 mm 2 mps 749 mmHg 87%
    21:00 +9°C° 0.1 mm 2 mps 750 mmHg 90%
    22:00 +9°C° 0 mm 2 mps 750 mmHg 90%
    23:00 +9°C° 0 mm 1 mps 750 mmHg 91%
    Show more